RYR340A LIME-LGSA

Flight info

Callsign RYR340A
Flight time N/A
Altitude 37000
Route LOGDI DCT EKDIR DCT LOMED DCT LATAN DCT TRL UL612 MANOK L612 RUSOS
Aircraft B738/M-SDE3FGILRWY/SB1

Departure

Time 2026-04-28 20:26
Airport Il Caravaggio International Airport (LIME)

Arrival

Time N/A
Airport Chania International Airport (LGSA)
Time Latitude Longitude Altitude Speed Heading
2026-04-28 19:41 45.66532 9.70703 786 ft 0 kts 195°
2026-04-28 20:13 45.66547 9.70708 786 ft 4 kts 191°
2026-04-28 20:14 45.66574 9.70714 786 ft 4 kts 180°
2026-04-28 20:14 45.66600 9.70710 786 ft 4 kts 154°
2026-04-28 20:14 45.66614 9.70692 786 ft 1 kts 105°
2026-04-28 20:14 45.66614 9.70691 786 ft 1 kts 105°
2026-04-28 20:17 45.66610 9.70719 786 ft 8 kts 103°
2026-04-28 20:17 45.66595 9.70803 786 ft 9 kts 105°
2026-04-28 20:17 45.66579 9.70888 786 ft 10 kts 105°
2026-04-28 20:18 45.66560 9.70988 786 ft 11 kts 105°
2026-04-28 20:18 45.66545 9.71065 786 ft 12 kts 107°
2026-04-28 20:18 45.66502 9.71232 786 ft 15 kts 107°
2026-04-28 20:18 45.66472 9.71377 786 ft 16 kts 105°
2026-04-28 20:19 45.66443 9.71536 786 ft 17 kts 101°
2026-04-28 20:19 45.66454 9.71698 786 ft 16 kts 74°
2026-04-28 20:19 45.66472 9.71853 786 ft 16 kts 96°
2026-04-28 20:19 45.66443 9.71999 786 ft 15 kts 112°
2026-04-28 20:20 45.66419 9.72141 786 ft 14 kts 99°
2026-04-28 20:20 45.66398 9.72277 786 ft 14 kts 104°
2026-04-28 20:20 45.66379 9.72378 786 ft 3 kts 105°
2026-04-28 20:24 45.66377 9.72390 786 ft 0 kts 104°
2026-04-28 20:24 45.66374 9.72441 786 ft 7 kts 86°
2026-04-28 20:24 45.66394 9.72499 786 ft 7 kts 37°
2026-04-28 20:24 45.66424 9.72497 786 ft 7 kts 335°
2026-04-28 20:25 45.66454 9.72451 786 ft 7 kts 291°
2026-04-28 20:25 45.66482 9.72300 786 ft 42 kts 284°
2026-04-28 20:25 45.66623 9.71549 786 ft 113 kts 285°
2026-04-28 20:25 45.66878 9.70182 800 ft 169 kts 285°
2026-04-28 20:26 45.67198 9.68499 1448 ft 173 kts 286°
2026-04-28 20:26 45.67162 9.66818 2193 ft 179 kts 242°
2026-04-28 20:26 45.66254 9.65486 2602 ft 197 kts 214°
2026-04-28 20:26 45.65182 9.64244 3303 ft 203 kts 222°
2026-04-28 20:27 45.64174 9.62744 3754 ft 216 kts 225°
2026-04-28 20:27 45.63107 9.61141 4185 ft 226 kts 225°
2026-04-28 20:27 45.61993 9.59480 4769 ft 238 kts 225°
2026-04-28 20:27 45.60835 9.57749 5578 ft 243 kts 225°
2026-04-28 20:28 45.59646 9.56031 5963 ft 244 kts 224°
2026-04-28 20:28 45.58436 9.54300 6070 ft 248 kts 224°
2026-04-28 20:28 45.57203 9.52575 6074 ft 247 kts 218°
2026-04-28 20:28 45.55684 9.51572 6081 ft 242 kts 185°
2026-04-28 20:29 45.54030 9.51809 6092 ft 240 kts 162°
2026-04-28 20:29 45.52482 9.52702 6083 ft 241 kts 151°
2026-04-28 20:29 45.51050 9.53945 6231 ft 239 kts 147°
2026-04-28 20:29 45.49658 9.55263 6612 ft 243 kts 146°
2026-04-28 20:30 45.48240 9.56616 6953 ft 247 kts 146°
2026-04-28 20:30 45.46807 9.57975 7430 ft 253 kts 147°
2026-04-28 20:30 45.45270 9.59422 7778 ft 273 kts 147°
2026-04-28 20:30 45.43659 9.60927 8392 ft 280 kts 147°
2026-04-28 20:31 45.42022 9.62448 9123 ft 282 kts 148°
2026-04-28 20:31 45.40368 9.63977 9860 ft 285 kts 148°
2026-04-28 20:31 45.38693 9.65520 10512 ft 289 kts 148°
2026-04-28 20:31 45.36991 9.67084 11142 ft 293 kts 149°
2026-04-28 20:32 45.35265 9.68666 11774 ft 297 kts 149°
2026-04-28 20:32 45.33515 9.70267 12416 ft 301 kts 149°
2026-04-28 20:32 45.31739 9.71889 13010 ft 306 kts 149°
2026-04-28 20:32 45.29966 9.73506 13631 ft 310 kts 149°
2026-04-28 20:33 45.28138 9.75172 14222 ft 314 kts 149°
2026-04-28 20:33 45.26293 9.76852 14783 ft 317 kts 149°
2026-04-28 20:33 45.24423 9.78553 15345 ft 321 kts 149°
2026-04-28 20:33 45.22526 9.80276 15916 ft 325 kts 149°
2026-04-28 20:34 45.20611 9.82015 16480 ft 329 kts 150°
2026-04-28 20:34 45.18671 9.83775 17042 ft 333 kts 150°
2026-04-28 20:34 45.16707 9.85555 17592 ft 337 kts 150°
2026-04-28 20:34 45.14722 9.87353 18145 ft 341 kts 150°
2026-04-28 20:35 45.12718 9.89167 18693 ft 343 kts 150°
2026-04-28 20:35 45.10702 9.90991 19223 ft 345 kts 150°
2026-04-28 20:35 45.08654 9.92840 19667 ft 353 kts 150°
2026-04-28 20:35 45.06561 9.94728 20142 ft 360 kts 150°
2026-04-28 20:36 45.04431 9.96648 20641 ft 366 kts 150°
2026-04-28 20:36 45.02268 9.98597 21202 ft 370 kts 150°
2026-04-28 20:36 45.00086 10.00561 21761 ft 374 kts 150°
2026-04-28 20:36 44.97880 10.02547 22331 ft 377 kts 150°
2026-04-28 20:37 44.95664 10.04539 22920 ft 380 kts 150°
2026-04-28 20:37 44.93421 10.06552 23491 ft 383 kts 150°
2026-04-28 20:37 44.91172 10.08570 23996 ft 385 kts 150°
2026-04-28 20:37 44.88906 10.10601 24450 ft 388 kts 150°
2026-04-28 20:38 44.86611 10.12655 24894 ft 391 kts 150°
2026-04-28 20:38 44.84343 10.14683 25336 ft 394 kts 150°
2026-04-28 20:38 44.81988 10.16786 25790 ft 396 kts 150°
2026-04-28 20:38 44.79681 10.18845 26222 ft 399 kts 150°
2026-04-28 20:39 44.77333 10.20939 26662 ft 402 kts 150°
2026-04-28 20:39 44.74962 10.23051 27091 ft 404 kts 150°
2026-04-28 20:39 44.72569 10.25181 27494 ft 407 kts 150°
2026-04-28 20:39 44.70164 10.27320 27874 ft 412 kts 151°
2026-04-28 20:40 44.67732 10.29478 28223 ft 415 kts 151°
2026-04-28 20:40 44.65282 10.31652 28659 ft 418 kts 151°
2026-04-28 20:40 44.62815 10.33840 29071 ft 420 kts 150°
2026-04-28 20:40 44.60336 10.36039 29466 ft 423 kts 150°
2026-04-28 20:41 44.57842 10.38248 29841 ft 425 kts 151°
2026-04-28 20:41 44.55334 10.40466 30192 ft 428 kts 151°
2026-04-28 20:41 44.52804 10.42698 30501 ft 430 kts 151°
2026-04-28 20:41 44.50266 10.44936 30819 ft 432 kts 150°
2026-04-28 20:42 44.47712 10.47185 31126 ft 434 kts 151°
2026-04-28 20:42 44.45144 10.49445 31415 ft 437 kts 151°
2026-04-28 20:42 44.42640 10.51872 31674 ft 442 kts 142°
2026-04-28 20:42 44.40448 10.54932 31932 ft 449 kts 131°
2026-04-28 20:43 44.38573 10.58443 32202 ft 452 kts 127°
2026-04-28 20:43 44.36736 10.62022 32439 ft 455 kts 127°
2026-04-28 20:43 44.34887 10.65624 32664 ft 458 kts 128°
2026-04-28 20:43 44.33016 10.69235 32910 ft 460 kts 128°
2026-04-28 20:44 44.31128 10.72861 33131 ft 463 kts 128°
2026-04-28 20:44 44.29228 10.76495 33371 ft 465 kts 128°
2026-04-28 20:44 44.27313 10.80144 33613 ft 467 kts 128°
2026-04-28 20:44 44.25388 10.83797 33850 ft 469 kts 128°
2026-04-28 20:45 44.23450 10.87468 34056 ft 471 kts 128°
2026-04-28 20:45 44.21505 10.91144 34260 ft 473 kts 128°
2026-04-28 20:45 44.19545 10.94842 34472 ft 473 kts 128°
2026-04-28 20:45 44.17589 10.98530 34742 ft 473 kts 128°
2026-04-28 20:46 44.15636 11.02207 35021 ft 472 kts 128°
2026-04-28 20:46 44.13710 11.05830 35277 ft 472 kts 128°
2026-04-28 20:46 44.11753 11.09505 35537 ft 472 kts 128°
2026-04-28 20:46 44.09799 11.13170 35799 ft 472 kts 128°